Lapse_Rate
5.4 5.5 5.4 5.9 6.0 6.2 6.8 8.1 9.1 9.1 9.0 8.8 7.4 6.9 7.3 8.3 7.2 6.7 7.0 7.4 7.3 6.9 6.7 7.2 7.4 7.0 5.1 3.9 4.2 4.7 4.9 5.2 5.8 5.4 4.8 3.9 4.4 4.4 5.0 6.1 6.0 5.8 5.1
5.7 5.8 6.2 7.2 8.0 8.5 8.6 8.2 7.3 8.0 9.1 8.4 8.6 7.9 7.8 7.4 7.4 6.9 7.0 7.0 6.8 7.0 7.2 7.1 5.6 6.1 4.7 5.5 4.7 5.1 5.3 5.4 5.8 5.6 3.6 3.8 4.6 4.3 4.5 5.6 5.6 8.0 6.7
6.7 6.8 8.1 8.9 9.0 9.1 9.2 9.2 7.7 7.6 8.6 9.0 8.4 7.5 7.8 7.2 6.9 6.8 6.4 6.7 7.3 7.1 6.9 7.1 7.1 6.9 5.5 5.3 5.3 5.5 5.5 5.2 4.8 4.0 3.9 3.5 4.0 3.5 4.5 5.4 5.2 5.1 7.3
9.1 9.0 8.9 8.9 9.0 9.2 9.2 9.1 9.2 8.9 8.4 7.6 6.7 5.7 5.9 5.9 6.6 6.5 5.1 5.9 6.6 7.5 6.9 6.0 5.2 5.7 5.0 5.5 5.6 4.5 4.3 4.3 4.1 4.1 4.5 4.4 4.6 4.6 4.1 5.0 5.4 5.6 7.2
8.9 8.9 8.8 8.8 9.0 9.2 8.7 8.9 9.0 8.8 7.9 6.8 4.4 3.6 4.4 5.7 5.7 6.0 7.9 8.7 7.6 6.2 6.0 6.0 5.5 5.1 5.5 5.4 5.8 5.8 5.3 5.3 5.6 5.6 5.0 5.6 5.2 5.3 5.7 5.5 5.9 7.4 8.7
8.8 8.7 8.9 8.9 9.0 8.7 7.7 8.8 8.6 6.3 5.1 4.5 4.9 5.5 5.7 6.2 5.3 5.8 6.9 6.4 5.8 6.2 6.1 6.0 5.0 4.5 4.3 5.7 5.9 6.3 6.1 5.9 6.1 8.1 7.6 6.1 5.9 7.1 6.6 6.9 8.8 8.6 8.3
8.8 8.8 8.9 8.8 8.8 8.8 8.5 8.6 8.8 7.0 5.2 5.4 5.3 5.8 6.4 7.4 3.9 3.6 4.1 6.7 6.4 7.7 7.5 6.8 7.0 7.8 6.7 7.0 5.3 5.4 5.4 4.7 5.5 6.9 6.9 7.2 7.4 7.3 8.5 7.3 6.8 8.4 8.8
8.8 8.8 8.8 8.8 8.9 8.9 8.7 8.6 8.6 8.0 5.5 4.9 5.3 5.8 7.2 6.4 3.5 2.5 3.5 6.9 7.2 6.9 7.2 7.2 6.1 7.6 7.1 7.1 7.0 7.4 8.1 7.4 7.3 9.0 7.6 7.5 7.2 7.6 7.8 6.7 7.9 8.3 8.9
8.6 8.7 8.9 9.0 8.9 8.9 8.8 8.8 8.8 8.3 5.4 4.1 5.9 6.7 6.3 6.1 2.9 2.0 3.4 6.0 4.9 6.2 5.4 4.0 5.9 6.1 6.2 4.2 7.7 7.7 8.2 8.4 2.9 2.5 3.1 3.4 5.1 5.6 8.6 9.6 9.1 8.9 8.4
8.4 8.8 8.9 8.8 8.8 8.7 8.8 8.7 8.8 8.1 7.1 5.6 5.2 5.9 5.8 6.7 2.4 1.6 2.7 5.5 5.0 4.5 4.2 4.3 3.5 5.3 3.2 3.7 7.6 7.4 7.5 8.7 9.1 8.4 7.6 6.4 7.2 6.0 5.7 7.9 9.2 8.8 8.7
8.9 8.8 8.8 8.8 8.4 8.7 8.6 8.8 7.8 7.1 6.9 5.7 5.6 6.0 6.5 6.8 5.4 1.3 1.2 5.5 4.3 4.1 4.2 4.6 4.7 3.0 1.8 1.9 3.1 7.6 6.6 7.4 7.3 9.2 9.4 9.5 9.4 9.6 9.5 8.5 9.1 8.4 8.9
9.0 8.9 8.6 8.7 8.1 8.2 8.4 6.8 5.4 5.4 6.9 6.8 6.9 6.3 6.5 6.4 3.5 1.1 0.9 2.8 4.0 4.5 4.4 4.5 5.5 2.2 0.8 1.2 3.0 3.9 3.7 5.3 7.9 9.1 9.1 9.2 9.1 9.3 9.5 9.3 8.2 8.5 8.7
9.0 8.7 8.8 8.6 8.0 7.0 6.8 5.0 5.5 4.6 6.7 6.9 8.2 8.2 7.6 6.1 5.7 1.1 0.9 1.4 2.7 5.3 5.7 4.9 4.0 0.9 0.4 1.2 1.8 3.2 3.0 9.1 9.3 9.1 9.0 9.0 9.2 9.6 8.9 8.5 8.7 8.1 6.8
9.0 8.9 8.7 7.9 6.0 7.4 5.4 6.6 7.2 8.1 6.8 6.6 8.5 8.6 8.6 7.5 6.0 5.5 3.8 2.6 2.4 3.5 4.2 4.8 6.8 4.4 5.6 7.6 5.8 5.0 8.8 9.4 9.2 9.0 9.1 9.4 9.6 9.5 9.4 9.6 8.8 9.4 9.2
9.0 9.1 8.4 8.1 6.9 9.0 8.0 6.6 8.0 7.8 7.2 8.0 8.8 9.0 8.7 8.0 7.1 5.8 5.3 3.8 4.1 3.8 4.5 6.6 7.6 7.7 7.7 8.9 8.4 8.5 9.4 9.4 9.2 9.3 9.2 9.2 9.2 9.3 9.3 9.6 9.4 9.0 9.0
8.8 7.3 7.2 6.5 7.1 6.7 7.9 9.0 2.8 2.7 1.6 -0.1 1.1 3.6 8.7 4.4 0.4 0.1 -0.2 0.6 1.2 1.2 4.6 6.4 7.3 8.1 7.8 8.7 7.8 8.5 9.3 8.7 9.4 9.5 9.4 9.2 9.0 9.2 9.3 9.4 9.0 9.2 9.0
7.2 7.1 6.7 5.4 6.1 6.6 8.2 9.0 8.1 3.4 -0.6 -0.6 -0.1 0.6 -0.2 3.8 -0.9 -1.1 -1.2 -0.4 -0.2 0.8 7.6 7.6 7.3 8.4 8.5 8.2 8.8 9.0 9.1 9.4 8.5 9.5 9.2 9.3 9.4 9.4 8.8 9.2 8.8 8.6 7.6
8.3 4.9 4.8 6.7 7.5 6.9 8.7 8.8 7.5 7.6 7.9 8.5 1.2 2.8 -1.2 -1.0 -1.8 -2.0 -2.2 0.4 5.8 3.9 9.1 9.0 8.9 9.1 9.1 9.0 9.1 9.2 9.1 9.2 9.2 9.2 9.3 9.2 9.3 9.3 9.2 9.1 9.2 8.7 6.9
8.8 8.8 7.6 8.3 6.8 5.4 8.2 7.8 8.9 7.2 6.4 8.3 8.8 0.9 -0.8 -3.5 -2.6 -3.2 -2.6 8.8 8.9 8.9 9.0 9.1 9.1 9.4 9.3 9.2 9.4 9.1 8.8 6.4 5.9 6.9 5.9 7.3 9.3 9.3 9.1 9.1 9.2 5.6 6.6
8.8 7.0 7.0 8.0 7.9 7.4 7.9 8.8 8.7 7.7 6.9 6.5 8.5 7.8 7.5 3.3 6.4 7.2 6.3 8.5 9.2 9.2 9.2 9.2 9.3 9.4 9.2 9.4 9.2 9.2 9.0 7.7 8.9 9.4 8.2 7.9 7.9 6.2 8.5 9.3 9.3 9.3 9.1
8.4 8.9 6.7 8.6 9.0 8.7 7.6 8.2 7.6 7.5 8.0 7.0 5.9 8.2 5.6 6.1 9.0 9.1 9.0 9.1 9.3 9.3 9.3 9.4 9.4 9.5 9.5 9.5 9.0 8.6 7.7 7.8 6.0 6.6 6.9 7.7 8.4 9.2 8.0 8.6 8.4 8.4 9.5
9.1 8.6 8.8 7.2 8.5 8.1 8.2 8.0 8.3 7.9 8.2 6.8 6.3 5.2 1.4 8.3 9.1 9.1 9.1 9.3 9.4 9.7 9.7 9.6 9.5 9.6 9.2 9.7 9.4 9.3 8.1 8.2 7.2 7.4 6.7 9.0 7.9 7.6 6.3 6.8 5.7 9.3 8.1
8.0 8.4 7.7 7.0 6.5 5.7 7.3 8.1 8.2 7.9 7.1 7.9 6.0 5.1 5.7 7.3 9.2 8.7 9.2 9.4 9.5 9.5 9.9 9.8 9.7 9.4 9.7 9.7 8.3 9.1 6.8 7.6 9.7 9.6 9.3 6.9 9.3 9.1 9.3 8.2 8.8 6.7 4.3
8.6 7.3 8.3 7.2 5.8 6.2 6.3 6.8 7.2 4.3 4.6 6.6 6.2 5.6 5.3 5.3 4.9 9.2 9.1 7.9 6.8 6.1 4.2 3.9 6.8 7.8 5.1 7.4 7.5 7.5 5.0 2.6 5.8 5.1 6.3 7.2 8.7 8.9 9.1 9.1 8.5 9.0 8.0
7.6 8.2 6.9 7.9 6.1 5.3 5.8 5.9 5.8 6.1 6.4 5.9 6.2 7.4 6.2 4.8 5.0 5.2 4.8 4.3 5.1 7.0 6.6 6.9 4.5 3.0 4.2 3.8 5.7 0.6 -6.5 -5.6 0.9 -2.7 4.4 7.1 8.2 9.0 9.2 8.1 6.0 8.2 9.1
5.5 4.9 3.5 2.9 4.5 5.7 5.9 6.1 5.7 4.9 4.8 5.1 5.7 6.6 7.0 6.0 5.3 5.2 4.9 4.9 4.2 4.6 4.9 3.1 2.9 3.3 3.1 0.7 -1.9 -5.2 -7.1 -8.3 -3.8 -6.2 -0.4 4.7 6.6 8.7 8.9 7.6 7.8 7.1 6.8
Wind_Speed
7 7 6 6 7 7 8 9 10 11 12 11 9 9 11 14 12 12 13 15 12 12 12 13 13 11 9 7 8 10 11 11 11 2 2 2 3 7 8 7 14 12 14
7 7 7 7 7 8 8 9 9 11 10 10 13 13 14 14 13 12 13 12 10 11 13 13 11 9 10 10 6 6 6 8 5 7 2 2 3 8 10 7 6 11 14
7 7 6 7 8 9 9 8 9 10 11 12 11 10 10 11 10 9 7 8 10 10 12 13 14 13 11 7 9 10 10 7 6 3 3 2 1 7 4 3 4 5 4
7 7 7 8 9 9 8 9 10 10 9 9 7 7 7 4 4 6 6 8 10 11 12 9 7 10 7 8 8 3 5 7 7 6 5 4 6 11 9 9 6 4 11
7 9 9 7 8 8 8 9 10 9 7 5 5 5 5 7 7 10 10 8 6 4 3 2 2 2 6 6 5 8 9 7 7 8 6 6 6 7 11 8 8 9 7
8 10 8 8 9 9 9 9 7 7 7 7 8 8 7 7 6 5 4 6 6 6 5 4 4 5 3 2 6 7 12 11 10 8 8 8 9 10 9 9 8 9 9
9 10 9 9 10 10 9 9 9 8 8 9 9 9 9 10 10 9 9 6 5 5 4 4 5 7 8 6 5 8 10 9 6 8 9 10 12 12 12 12 10 9 8
10 11 10 10 11 11 10 10 9 8 9 10 9 12 12 8 14 13 11 9 7 4 3 1 4 3 5 6 7 6 7 8 7 9 10 9 10 11 12 13 9 7 8
11 10 10 12 12 12 10 10 9 8 9 9 10 11 9 8 14 14 12 9 5 6 5 1 3 2 5 7 8 7 5 5 7 9 10 9 10 12 13 10 9 9 8
10 10 10 10 11 12 10 9 8 6 10 7 8 10 13 11 13 15 13 4 5 3 3 4 8 8 9 10 8 7 6 8 10 9 7 8 10 7 5 7 10 9 9
11 11 10 11 12 10 9 7 5 7 9 8 11 12 13 12 12 15 15 8 5 4 5 5 6 10 10 10 7 8 8 6 4 8 7 7 8 8 9 8 7 6 8
12 13 11 9 11 9 11 9 7 5 10 10 10 8 7 8 9 13 16 15 12 7 6 5 7 12 10 9 7 6 7 7 6 8 9 10 9 9 9 8 7 6 9
13 12 13 11 10 10 10 7 8 6 8 9 8 8 8 5 7 13 14 14 8 6 5 7 9 11 9 6 6 6 7 8 9 10 8 8 7 9 10 11 10 9 9
16 16 13 12 12 10 7 9 8 9 6 9 9 9 8 8 7 9 7 7 12 8 7 4 8 10 12 10 10 7 8 8 9 8 8 8 7 8 9 8 10 11 9
17 17 13 11 10 11 11 11 10 11 8 10 8 7 7 8 9 11 10 8 8 8 6 7 9 10 11 11 9 10 10 10 10 9 9 9 9 9 9 9 9 9 10
19 13 11 9 10 9 10 12 11 8 6 8 7 2 3 3 14 14 12 12 14 15 7 8 9 10 10 10 11 12 11 12 11 10 10 9 9 9 9 9 9 9 9
14 14 10 10 8 8 11 10 8 4 3 4 6 7 6 8 15 14 13 13 10 9 10 9 9 10 10 10 12 12 11 11 12 9 9 9 9 10 9 9 8 8 7
16 13 8 7 8 7 12 9 7 7 8 11 8 8 8 9 12 13 12 11 6 5 10 11 10 12 12 10 10 10 9 8 8 8 9 9 9 10 10 10 9 9 8
14 11 9 8 7 7 6 5 7 7 7 10 10 9 10 8 8 9 14 10 10 11 12 12 11 12 10 9 9 8 7 2 3 5 3 6 9 10 10 10 10 11 11
11 16 11 8 6 6 7 7 7 6 6 8 7 11 12 9 9 9 10 11 11 11 12 12 12 10 10 9 9 9 10 10 12 11 11 12 11 4 11 12 12 12 11
10 11 11 8 8 5 4 7 6 6 6 6 8 6 17 14 14 13 13 13 13 13 13 12 13 12 10 9 8 7 6 6 5 6 8 9 10 14 14 12 11 11 13
12 10 7 7 7 5 6 5 5 5 7 7 6 6 12 14 12 12 13 13 13 13 12 11 10 10 12 12 12 13 12 11 10 10 8 10 11 12 8 12 6 14 11
11 10 9 7 4 5 7 6 4 4 4 7 4 4 6 10 12 9 12 12 12 13 13 12 13 11 11 10 12 13 9 11 12 12 14 15 14 11 12 12 14 12 8
11 11 12 8 3 5 4 5 3 3 4 7 7 4 5 5 9 9 9 6 7 3 2 6 9 14 4 9 9 12 0 5 3 5 9 7 9 11 11 14 13 14 11
12 12 12 11 7 3 4 4 3 6 8 7 8 8 4 4 3 5 6 7 9 7 7 8 7 14 7 16 14 16 10 2 7 6 5 8 10 15 14 9 9 12 17
12 12 10 10 10 9 7 5 6 8 10 7 6 4 4 4 5 4 4 4 4 4 7 8 9 14 11 11 12 12 11 13 9 9 5 6 7 11 11 10 15 11 13
Wind_Direction
178 181 196 216 227 238 253 265 273 285 292 284 273 268 265 258 242 240 243 244 241 235 227 231 234 236 238 228 232 229 221 212 217 138 76 112 130 139 143 158 152 158 162
185 191 206 231 244 262 266 277 288 286 274 265 273 262 250 251 254 252 249 245 241 235 232 227 232 230 231 215 192 207 197 186 186 170 104 157 182 171 153 145 154 184 179
194 205 223 245 254 262 270 272 273 275 277 279 282 276 272 271 254 241 238 239 238 242 234 238 245 242 234 231 225 219 203 187 184 130 126 115 139 122 81 85 169 247 245
220 232 246 256 263 272 282 283 276 278 267 267 277 282 275 274 249 231 214 227 235 252 258 249 241 244 225 208 198 171 164 140 143 144 142 140 148 151 163 178 199 208 221
227 248 261 273 271 269 278 286 293 287 279 259 235 236 241 250 236 226 230 236 229 239 257 256 71 282 226 212 196 172 150 147 155 150 148 154 161 163 175 177 183 208 199
253 256 264 269 268 262 267 276 280 272 251 222 225 231 234 243 203 174 220 199 204 203 197 166 155 136 198 238 47 149 163 161 173 171 170 175 171 179 182 179 182 175 196
258 257 259 260 260 254 259 266 272 254 238 222 218 226 241 236 160 172 209 196 219 239 183 185 176 189 194 172 102 97 115 128 180 173 177 193 183 182 179 185 199 201 194
267 268 266 259 259 252 249 259 258 260 235 224 224 231 246 242 170 177 199 220 196 200 261 223 188 212 185 174 167 175 178 172 174 191 191 200 193 182 188 194 184 190 210
287 276 266 255 254 254 256 260 260 251 242 227 232 243 240 238 179 172 190 204 207 187 165 312 333 224 232 217 187 184 182 150 82 63 71 101 158 166 169 184 179 184 200
279 281 269 257 254 254 256 258 265 249 237 229 230 231 237 229 179 175 189 206 193 155 169 220 239 247 194 208 204 186 196 186 175 147 119 102 142 130 181 225 176 202 207
291 278 269 275 257 246 257 261 255 255 255 223 227 233 238 224 191 183 185 197 175 173 206 215 226 195 198 199 213 205 196 191 160 165 169 163 175 175 202 222 231 268 232
299 293 278 259 263 246 228 229 227 258 261 255 244 242 242 221 211 188 184 209 182 188 193 206 234 167 174 194 197 157 167 198 194 198 189 183 185 196 202 202 238 264 294
296 287 284 274 252 247 229 246 277 224 234 247 234 237 226 221 195 174 184 197 214 195 205 217 193 166 164 180 214 166 181 209 212 193 214 223 210 202 195 184 185 222 273
301 294 283 273 266 242 232 227 219 250 236 241 235 224 224 211 198 180 189 195 199 209 177 201 187 180 192 204 172 197 215 215 220 237 236 219 215 213 195 197 189 194 216
299 292 290 277 264 231 225 232 247 230 218 242 234 233 217 214 205 184 178 181 184 189 187 208 187 182 191 205 198 201 207 216 226 238 237 236 230 219 215 203 218 204 206
308 310 300 283 263 256 231 250 222 237 240 170 119 360 202 124 136 145 156 162 162 176 196 200 195 196 203 196 211 210 194 201 217 221 225 243 244 229 226 218 205 212 225
305 301 295 287 272 248 234 251 258 179 125 233 172 134 88 148 148 156 162 169 171 152 210 198 204 206 209 212 210 211 215 208 200 219 223 218 227 247 233 233 214 209 215
297 295 280 272 268 256 248 234 221 218 216 209 210 212 154 155 165 160 151 145 172 213 219 223 221 222 211 211 214 222 230 237 225 224 223 235 232 239 226 229 234 229 188
303 309 296 285 289 291 271 305 260 240 230 234 191 190 147 105 115 140 167 195 209 208 213 234 219 227 224 223 226 207 220 201 222 185 191 225 221 233 244 241 230 228 228
321 310 306 315 294 289 283 258 245 253 245 266 228 178 173 154 182 187 196 214 227 223 213 211 234 238 236 228 220 199 209 209 225 207 199 211 225 215 252 231 236 240 228
308 307 318 293 288 291 289 280 280 275 259 246 288 237 171 190 198 202 200 214 227 240 238 227 213 207 225 229 226 223 212 228 199 218 236 226 210 207 221 222 226 229 238
307 307 299 288 303 276 256 280 276 276 273 273 277 294 209 196 196 201 209 210 214 227 233 244 241 230 201 211 207 212 218 217 213 222 230 238 223 222 212 242 243 263 239
332 328 332 325 307 318 289 279 291 283 291 273 258 283 214 247 225 193 202 210 212 212 216 227 227 232 231 224 205 214 206 252 230 228 220 209 232 219 231 239 231 223 209
348 338 334 351 335 285 288 292 280 285 279 282 284 247 217 266 316 229 229 211 231 219 20 331 268 251 279 289 240 263 64 8 318 148 230 278 250 245 249 256 262 268 261
356 1 355 353 354 14 30 336 305 282 268 268 281 268 245 169 266 300 325 343 343 324 203 224 19 16 26 16 341 62 59 68 19 359 325 295 258 250 254 261 277 269 260
10 11 8 3 1 7 2 2 36 30 19 9 294 323 261 98 60 9 323 313 337 310 15 39 47 65 64 66 27 22 16 29 30 4 338 293 273 259 260 273 275 275 280